[[{"header":{"parameterUnit":"m.s-1","parameterCategory":1,"la1":30.2991,"la2":30.254,"lo1":-89.0895,"lo2":-89.0444,"dy":0.0017,"dx":0.0017,"nx":28,"ny":28,"refTime":"2025-11-24T09:00:00:Z","depth":0,"parameterNumber":2,"parameterNumberName":"U-component_of_WINDS"},"data":[0,0,0,0,0,0,0,0,0,0,0,0,0,0,0,0,0,0,0,0,0,0,0,0,0,0,0,0,0,0,0,0,0,0,0,0,0,0,0,0,0,0,0,0,0,0,0,0,0,0,0,0,0,0,0,0,0,0,2.6905,2.6906,0,2.692,2.692,2.692,2.6862,2.686,2.6858,2.6856,2.6875,2.6877,2.6879,0,0,0,0,0,0,0,0,0,0,0,0,0,2.6832,2.6834,2.6905,2.6906,2.6906,2.692,2.692,2.6921,2.6862,2.686,2.6858,2.6856,2.6874,2.6877,2.6879,0,0,0,0,0,0,0,0,0,0,0,0,0,2.6857,2.6834,2.6905,2.6878,2.6876,2.692,2.692,2.6921,2.6862,2.686,2.6857,2.6855,2.6874,2.6877,2.688,2.6952,0,0,2.689,2.6891,0,0,0,0,0,0,0,0,2.6856,2.686,2.6882,2.688,2.6878,2.6886,2.6901,2.6931,2.6863,2.6868,2.6856,2.6853,2.6881,2.6884,2.6892,2.6953,2.6954,2.689,2.6892,2.6893,2.6894,0,0,0,0,0,0,0,2.6854,2.6859,2.6911,2.6882,2.688,2.6867,2.6868,2.6907,2.6889,2.6867,2.6863,2.6865,2.688,2.6889,2.6892,2.6954,2.689,2.6893,2.6895,2.6896,2.7078,2.7081,0,0,0,0,0,0,2.6855,2.6858,2.6911,2.6912,2.686,2.6871,2.6871,2.6886,2.6888,2.6886,2.6867,2.6862,2.6885,2.6889,2.6893,2.698,2.6893,2.6896,2.6898,2.7075,2.7079,2.7082,0,0,0,0,0,0,2.6854,2.6861,2.691,2.6884,2.6889,2.6874,2.6892,2.6888,2.6897,2.6889,2.6886,2.688,2.6883,2.6888,2.6938,2.6979,2.6897,2.69,2.7072,2.7077,2.7081,2.7153,0,0,0,0,0,0,2.6852,2.686,2.6886,2.6885,2.6891,2.6954,2.6894,2.689,2.6903,2.6896,2.69,2.6898,2.6881,2.6934,2.6941,2.6982,2.6903,2.7068,2.7074,2.7079,2.7147,2.7159,2.717,0,0,0,0,0,2.685,2.6906,2.6888,2.6894,2.6922,2.6956,2.696,2.6939,2.6906,2.6933,2.6928,2.6898,2.6974,2.6939,2.6947,2.699,2.7066,2.7072,2.7079,2.7142,2.7157,2.717,0,0,0,0,0,0,2.6913,2.6905,2.6885,2.6942,2.695,2.6946,2.6979,2.6955,2.6974,2.6967,2.6941,2.6943,2.6998,2.6999,2.6961,2.7062,2.7014,2.7023,2.7059,2.7074,2.7085,2.7084,2.6906,0,0,0,0,0,2.6933,2.696,2.6952,2.7004,2.7009,2.6994,2.7008,2.6991,2.6999,2.7003,2.7001,2.7011,2.7038,2.7055,2.7079,2.7147,2.7148,2.718,2.7192,2.7201,2.7209,2.7249,2.7264,2.7104,2.7104,2.7104,0,0,2.6976,2.6975,2.6994,2.7017,2.7021,2.7052,2.6997,2.7031,2.7054,2.7008,2.7056,2.7055,2.7065,2.7125,2.7152,2.7128,2.7254,2.721,2.7217,2.722,2.7257,2.7272,2.7286,2.7108,2.7108,2.7107,0,0,2.707,2.7071,2.7115,2.7121,2.7129,2.7119,2.713,2.713,2.7128,2.7175,2.7142,2.717,2.7215,2.7225,2.7235,2.7337,2.7311,2.7345,2.7406,2.7445,2.7457,2.7468,2.7507,2.7521,2.7353,2.7353,2.7353,0,2.7122,2.7165,2.7141,2.7178,2.7191,2.715,2.7196,2.7204,2.7219,2.723,2.7202,2.726,2.7264,2.7327,2.7352,2.7361,2.7375,2.7345,2.7457,2.7468,2.7478,2.7515,2.7529,2.7358,2.7357,2.7357,2.7356,0,2.7231,2.7262,2.7297,2.7313,2.7329,2.7371,2.7355,2.7375,2.7357,2.7351,2.7402,2.7405,2.743,2.7444,2.7427,2.7506,2.7491,2.7461,2.7413,2.7498,2.7532,2.7546,2.7364,2.7362,2.7361,2.736,0,0,2.7364,2.7367,2.7381,2.7389,2.7396,2.742,2.7462,2.7485,2.7504,2.7517,2.7553,2.7593,2.7566,2.7579,2.7563,2.7597,2.7681,2.7563,2.7563,2.7586,2.7771,2.7795,2.7812,2.7663,2.7666,2.7668,2.7771,0,2.7458,2.7526,2.7507,2.7577,2.7607,2.7571,2.7607,2.7617,2.7613,2.764,2.7636,2.7666,2.7626,2.7634,2.7666,2.7663,2.7718,2.7656,2.7699,2.77,2.7698,2.7829,2.7854,2.7951,2.7784,2.7787,2.7788,0,2.7575,2.7594,2.7667,2.7672,2.7683,2.7716,2.7738,2.7763,2.7775,2.777,2.7785,2.7764,2.7807,2.7759,2.782,2.7778,2.7795,2.7797,2.78,2.7804,2.775,2.7839,2.7981,2.7997,2.7808,2.7807,2.7805,0,2.7668,2.771,2.776,2.7768,2.7774,2.7799,2.7803,2.7812,2.7828,2.7848,2.786,2.7885,2.7899,2.792,2.7907,2.7872,2.7972,2.7921,2.7971,2.7972,2.7994,2.7994,2.8144,2.8003,2.8003,2.8002,2.8002,0,2.7775,2.7822,2.7802,2.7833,2.7886,2.7864,2.7918,2.7918,2.7926,2.7959,2.7929,2.796,2.794,2.7971,2.7961,2.8015,2.8021,2.802,2.8017,2.8024,2.8024,2.8035,2.8029,2.8006,2.8005,2.8005,2.8004,0,2.7887,2.7875,2.7928,2.793,2.7932,2.7971,2.7974,2.8004,2.7999,2.804,2.8049,2.8041,2.8076,2.8065,2.8102,2.8096,2.8165,2.8153,2.8161,2.8159,2.821,2.8207,2.8374,2.8396,2.824,2.8241,2.8242,0,2.7957,2.7993,2.7999,2.8019,2.8025,2.8056,2.8073,2.8054,2.8074,2.8092,2.8121,2.8153,2.8177,2.8235,2.8234,2.8263,2.8253,2.8309,2.8257,2.8263,2.8256,2.8255,2.826,2.832,2.8322,2.8324,2.8325,0,2.8084,2.8077,2.8102,2.8127,2.8148,2.8167,2.8183,2.8201,2.8184,2.8208,2.8243,2.8262,2.8301,2.8334,2.8362,2.8368,2.8345,2.8341,2.8355,2.8362,2.8367,2.8368,2.8192,2.8338,2.8336,2.8335,2.8335,2.8334,2.8178,2.8209,2.8219,2.825,2.826,2.8277,2.8306,2.8305,2.8333,2.8363,2.8351,2.8392,2.8406,2.844,2.8451,2.8484,2.8463,2.8482,2.8487,2.8492,2.85,2.8361,2.8489,2.8488,2.8488,2.8488,2.8487,0,2.8305,2.831,2.8338,2.8362,2.8387,2.8362,2.838,2.8403,2.8439,2.8453,2.8479,2.8521,2.8554,2.8556,2.8588,2.8615,2.8605,2.8624,2.8623,2.8625,2.8516,2.8502,2.8631,2.8631,2.8631,2.8631,2.8631,2.8631,2.8373,2.8425,2.8421,2.8479,2.8484,2.8523,2.8536,2.8552,2.8564,2.8612,2.8639,2.864,2.8651,2.8684,2.8714,2.8714,2.8729,2.8752,2.8748,2.8647,2.8632,2.8619,2.8606,2.8755,2.8755,2.8855,2.8856,2.8857]},{"header":{"parameterUnit":"m.s-1","parameterCategory":1,"la1":30.2991,"la2":30.254,"lo1":-89.0895,"lo2":-89.0444,"dy":0.0017,"dx":0.0017,"nx":28,"ny":28,"refTime":"2025-11-24T09:00:00:Z","depth":0,"parameterNumber":3,"parameterNumberName":"V-component_of_WINDS"},"data":[0,0,0,0,0,0,0,0,0,0,0,0,0,0,0,0,0,0,0,0,0,0,0,0,0,0,0,0,0,0,0,0,0,0,0,0,0,0,0,0,0,0,0,0,0,0,0,0,0,0,0,0,0,0,0,0,0,0,1.2468,1.247,0,1.2719,1.2722,1.2725,1.2804,1.2802,1.2801,1.28,1.3057,1.3065,1.3073,0,0,0,0,0,0,0,0,0,0,0,0,0,1.2053,1.206,1.2467,1.2471,1.2474,1.2719,1.2722,1.2726,1.2804,1.2802,1.2801,1.28,1.3054,1.3064,1.3073,0,0,0,0,0,0,0,0,0,0,0,0,0,1.2262,1.2063,1.2467,1.2542,1.2552,1.2718,1.2722,1.2726,1.2804,1.2802,1.2801,1.2799,1.3051,1.3063,1.3075,1.3184,0,0,1.3111,1.3116,0,0,0,0,0,0,0,0,1.225,1.2277,1.2528,1.2538,1.2548,1.2728,1.267,1.288,1.2805,1.2708,1.28,1.2798,1.2949,1.2969,1.302,1.3196,1.3207,1.3112,1.3119,1.3125,1.3128,0,0,0,0,0,0,0,1.2235,1.2266,1.2567,1.2532,1.2544,1.2563,1.2591,1.271,1.2836,1.2717,1.2723,1.2752,1.2954,1.3009,1.3027,1.3211,1.3112,1.3122,1.313,1.3134,1.3487,1.3489,0,0,0,0,0,0,1.2208,1.2254,1.2559,1.2575,1.2392,1.2572,1.2603,1.2672,1.2835,1.2858,1.2753,1.2754,1.2989,1.3013,1.3036,1.3175,1.3124,1.3136,1.3142,1.3485,1.3488,1.349,0,0,0,0,0,0,1.2199,1.2235,1.2549,1.2416,1.2458,1.2581,1.2658,1.2678,1.2733,1.2862,1.2884,1.2786,1.2989,1.302,1.3146,1.3185,1.3141,1.3152,1.3482,1.3486,1.3489,1.3452,0,0,0,0,0,0,1.2187,1.2231,1.2274,1.2416,1.2464,1.2655,1.2661,1.2684,1.2753,1.2758,1.2899,1.292,1.299,1.3128,1.3158,1.32,1.3161,1.348,1.3484,1.3488,1.345,1.3453,1.3456,0,0,0,0,0,1.2172,1.2254,1.2276,1.2313,1.2521,1.2658,1.2685,1.2763,1.2756,1.28,1.2883,1.2916,1.3175,1.314,1.3175,1.3221,1.3477,1.3483,1.3487,1.3449,1.3453,1.3456,0,0,0,0,0,0,1.2114,1.2274,1.2301,1.2431,1.253,1.2671,1.2729,1.2765,1.2868,1.2868,1.296,1.2991,1.3111,1.3179,1.3137,1.3335,1.3328,1.334,1.3286,1.3291,1.3294,1.3276,1.3171,0,0,0,0,0,1.2116,1.2214,1.2348,1.2451,1.2499,1.2605,1.2667,1.2719,1.2825,1.2867,1.2959,1.306,1.3165,1.3231,1.3335,1.346,1.3491,1.3508,1.3511,1.3513,1.3523,1.3593,1.3602,1.3506,1.3506,1.3506,0,0,1.2122,1.2222,1.2278,1.2442,1.2524,1.2623,1.264,1.2744,1.2818,1.2883,1.3009,1.3079,1.3198,1.3324,1.3384,1.3384,1.3555,1.3519,1.352,1.3529,1.3599,1.3608,1.3616,1.351,1.3509,1.3509,0,0,1.2184,1.2269,1.2364,1.2446,1.257,1.264,1.2662,1.2797,1.2846,1.2974,1.3024,1.3112,1.329,1.3373,1.3438,1.3527,1.3562,1.3558,1.3575,1.3642,1.3649,1.3657,1.3688,1.3699,1.3567,1.3567,1.3567,0,1.2176,1.2327,1.2408,1.2509,1.2579,1.2641,1.2737,1.2813,1.2964,1.3011,1.3008,1.3232,1.3316,1.3462,1.3483,1.3534,1.3562,1.3544,1.3642,1.365,1.3658,1.3689,1.3701,1.3566,1.3566,1.3566,1.3566,0,1.2311,1.2414,1.2475,1.262,1.2697,1.2794,1.2889,1.2957,1.3,1.307,1.3197,1.3301,1.3425,1.3463,1.3507,1.3615,1.3611,1.3624,1.3619,1.3664,1.3695,1.3708,1.3564,1.3565,1.3565,1.3565,0,0,1.2346,1.2532,1.2553,1.2618,1.2759,1.2841,1.294,1.3062,1.3118,1.3219,1.3305,1.3452,1.3465,1.3538,1.3592,1.3651,1.3714,1.3657,1.3661,1.3664,1.3839,1.3828,1.3841,1.3737,1.374,1.3742,1.3829,0,1.2426,1.2607,1.2681,1.2828,1.2924,1.2983,1.307,1.3165,1.3232,1.3322,1.3396,1.3499,1.3508,1.3552,1.3613,1.3694,1.3751,1.3688,1.3817,1.3821,1.3787,1.3858,1.3848,1.3925,1.3841,1.3843,1.3845,0,1.2544,1.2646,1.2802,1.2929,1.2972,1.3049,1.3166,1.3252,1.336,1.3404,1.3485,1.3535,1.364,1.3627,1.3773,1.3729,1.3785,1.3833,1.3837,1.3854,1.3836,1.3876,1.3952,1.3963,1.3865,1.3863,1.3862,0,1.2554,1.273,1.2846,1.29,1.3052,1.3104,1.3169,1.3276,1.3344,1.3445,1.349,1.3601,1.3663,1.3748,1.3826,1.3809,1.3965,1.3958,1.4004,1.4002,1.4036,1.4033,1.4122,1.4071,1.407,1.407,1.407,0,1.2636,1.2729,1.2852,1.2923,1.3029,1.3112,1.3214,1.3283,1.3377,1.3462,1.352,1.3598,1.3697,1.3787,1.3849,1.396,1.3987,1.4026,1.4041,1.4021,1.4016,1.4061,1.4058,1.4073,1.4073,1.4072,1.4071,0,1.2666,1.2752,1.2882,1.3014,1.3049,1.3121,1.3234,1.3305,1.3373,1.348,1.351,1.3617,1.3727,1.3813,1.3955,1.3997,1.4114,1.4131,1.4078,1.4086,1.4127,1.4122,1.4249,1.427,1.4203,1.4203,1.4204,0,1.2713,1.2786,1.2925,1.2987,1.3051,1.3149,1.3218,1.3302,1.3372,1.3499,1.3554,1.3668,1.3763,1.3935,1.4025,1.4134,1.4154,1.4191,1.4171,1.4149,1.4156,1.415,1.4158,1.4194,1.4194,1.4195,1.4195,0,1.2788,1.2826,1.2924,1.3036,1.3117,1.3209,1.3302,1.3349,1.3449,1.3524,1.3637,1.371,1.3855,1.3967,1.4085,1.4152,1.419,1.42,1.4217,1.4198,1.4164,1.4183,1.4085,1.4197,1.4197,1.4197,1.4197,1.4196,1.2829,1.2896,1.3004,1.311,1.3189,1.3274,1.3347,1.3424,1.3519,1.3644,1.3687,1.3803,1.3908,1.407,1.4137,1.4228,1.423,1.4254,1.426,1.4265,1.4263,1.4148,1.425,1.425,1.425,1.425,1.425,0,1.2907,1.2979,1.3076,1.3204,1.3287,1.3315,1.3419,1.3487,1.3588,1.3682,1.3774,1.3903,1.4011,1.4108,1.4221,1.4274,1.4295,1.4301,1.4299,1.4313,1.4255,1.4229,1.4283,1.4283,1.4283,1.4283,1.4283,1.4283,1.2957,1.3072,1.3123,1.3276,1.3348,1.3462,1.3519,1.3597,1.3673,1.3814,1.3904,1.3966,1.4062,1.4181,1.4281,1.4307,1.4346,1.4348,1.4378,1.4322,1.4317,1.4313,1.429,1.4355,1.4355,1.4429,1.443,1.443]}]]